Weather History for Eugene, OR

Change the Weather History Date:

Tuesday, June 10, 2014

  Actual Average Record
Temperature  
Mean Temperature 60 °F 59 °F  
Max Temperature 76 °F 72 °F 90 °F (1940)
Min Temperature 43 °F 47 °F 34 °F (1916)
Degree Days  
Heating Degree Days 5 6  
Month to date heating degree days 43 68  
Since 1 June heating degree days 43 68  
Since 1 July heating degree days 4678 4717  
Cooling Degree Days 0 0  
Month to date cooling degree days 0 0  
Year to date cooling degree days 3 5  
Since 1 June cooling degree days 0 0  
Growing Degree Days 10 (Base 50)    
Moisture  
Dew Point 46 °F    
Average Humidity 63    
Maximum Humidity 93    
Minimum Humidity 33    
Precipitation  
Precipitation 0.00 in 0.07 in 0.87 in (1937)
Month to date precipitation 0.00 0.70  
Year to date precipitation 21.15 24.06  
Sea Level Pressure  
Sea Level Pressure 30.09 in    
Wind  
Wind Speed 8 mph (North)    
Max Wind Speed 15 mph    
Max Gust Speed 21 mph    
Visibility 10 miles    
Events      
T = Trace of Precipitation, MM = Missing Value Source: NWS Daily Summary

Daily Weather History Graph

Daily Weather History Graph

Search for Another Location

Airport:

Trip Planner

Search our weather history database for the weather conditions in past years. The results will help you decide how hot, cold, wet, or windy it might be!

Date:

Astronomy

Jun. 10, 2014 Rise Set
Actual Time 5:29 AM PDT 8:55 PM PDT
Civil Twilight 4:53 AM PDT 9:31 PM PDT
Nautical Twilight 4:05 AM PDT 10:19 PM PDT
Astronomical Twilight 3:05 AM PDT 11:19 PM PDT
Moon 6:22 PM PDT (6/10) 3:44 AM PDT (6/10)
Length of Visible Light 16h 38m
Length of Day
15h 26m
Waxing Gibbous, 93% of the Moon is Illuminated
Jun 10
Waxing Gibbous
Jun 12
Full
Jun 19
Last Quarter
Jun 27
New
Jul 5
First Quarter

Hourly Weather History & Observations

Time (PDT) Temp. Windchill Dew Point Humidity Pressure Visibility Wind Dir Wind Speed Gust Speed Precip Events Conditions
12:54 AM 50.0 °F - 45.0 °F 83% 30.10 in 10.0 mi NW 3.5 mph - N/A   Clear
1:54 AM 50.0 °F - 45.0 °F 83% 30.10 in 10.0 mi NNW 3.5 mph - N/A   Clear
2:54 AM 48.0 °F - 45.0 °F 89% 30.10 in 10.0 mi NNW 5.8 mph - N/A   Clear
3:54 AM 46.9 °F - 44.1 °F 90% 30.11 in 10.0 mi NNW 6.9 mph - N/A   Clear
4:54 AM 46.0 °F 44.8 °F 43.0 °F 89% 30.11 in 10.0 mi North 3.5 mph - N/A   Clear
5:54 AM 46.9 °F - 44.1 °F 90% 30.12 in 10.0 mi NNW 4.6 mph - N/A   Clear
6:54 AM 50.0 °F - 46.0 °F 86% 30.12 in 10.0 mi North 5.8 mph - N/A   Partly Cloudy
7:54 AM 55.4 °F - 48.2 °F 77% 30.12 in 10.0 mi NNW 8.1 mph - N/A   Clear
8:54 AM 59.0 °F - 46.9 °F 64% 30.14 in 10.0 mi North 11.5 mph - N/A   Partly Cloudy
9:54 AM 62.6 °F - 46.4 °F 55% 30.13 in 10.0 mi NNE 10.4 mph - N/A   Clear
10:54 AM 64.9 °F - 46.9 °F 52% 30.13 in 10.0 mi North 10.4 mph - N/A   Partly Cloudy
11:54 AM 66.2 °F - 44.6 °F 46% 30.12 in 10.0 mi NNE 11.5 mph - N/A   Partly Cloudy
12:54 PM 71.1 °F - 45.0 °F 39% 30.11 in 10.0 mi North 8.1 mph - N/A   Partly Cloudy
1:54 PM 71.6 °F - 44.6 °F 38% 30.10 in 10.0 mi North 9.2 mph - N/A   Partly Cloudy
2:54 PM 73.9 °F - 45.0 °F 35% 30.09 in 10.0 mi NNE 11.5 mph - N/A   Partly Cloudy
3:54 PM 75.9 °F - 44.1 °F 32% 30.07 in 10.0 mi NNE 9.2 mph 18.4 mph N/A   Partly Cloudy
4:54 PM 75.0 °F - 46.9 °F 37% 30.06 in 10.0 mi NE 11.5 mph - N/A   Partly Cloudy
5:54 PM 75.0 °F - 48.0 °F 38% 30.04 in 10.0 mi NE 11.5 mph - N/A   Partly Cloudy
6:54 PM 73.0 °F - 48.0 °F 41% 30.04 in 10.0 mi NNE 10.4 mph - N/A   Partly Cloudy
7:54 PM 69.8 °F - 48.2 °F 46% 30.03 in 10.0 mi NNE 10.4 mph - N/A   Partly Cloudy
8:54 PM 64.0 °F - 50.0 °F 60% 30.03 in 10.0 mi NNE 6.9 mph - N/A   Partly Cloudy
9:54 PM 57.0 °F - 51.1 °F 81% 30.04 in 10.0 mi North 8.1 mph - N/A   Clear
10:54 PM 54.0 °F - 48.9 °F 83% 30.05 in 10.0 mi North 5.8 mph - N/A   Clear
11:54 PM 54.0 °F - 48.9 °F 83% 30.05 in 10.0 mi NE 6.9 mph - N/A   Clear